Weather History for K1A5 - January, 2007

Change the Weather History Date:

Saturday, January 27, 2007

  Actual Average (KTOC) Record (KTOC)
Temperature  
Mean Temperature 36 °F -  
Max Temperature 55 °F 52 °F 64 °F (2014)
Min Temperature 17 °F 30 °F 29 °F (2015)
Degree Days  
Heating Degree Days 29    
Moisture  
Dew Point 20 °F    
Average Humidity 62    
Maximum Humidity 100    
Minimum Humidity 20    
Precipitation  
Precipitation 0.00 in - - ()
Sea Level Pressure  
Sea Level Pressure 29.99 in    
Wind  
Wind Speed 1 mph (SW)    
Max Wind Speed 18 mph    
Max Gust Speed 23 mph    
Visibility 10 miles    
Events      
Averages and records for this station are not official NWS values.
T = Trace of Precipitation, MM = Missing Value Source: NWS Daily Summary

Daily Weather History Graph

Daily Weather History Graph

Search for Another Location

Airport or City:

Trip Planner

Search our weather history database for the weather conditions in past years. The results will help you decide how hot, cold, wet, or windy it might be!

Date:

Astronomy

Jan. 27, 2007 Rise Set
Actual Time 7:36 AM EST 5:56 PM EST
Civil Twilight 7:09 AM EST 6:23 PM EST
Nautical Twilight 6:38 AM EST 6:54 PM EST
Astronomical Twilight 6:08 AM EST 7:24 PM EST
Moon 12:39 PM EST (1/27) 2:44 AM EST (1/27)
Length of Visible Light 11h 14m
Length of Day
10h 20m
Waxing Gibbous, 69% of the Moon is Illuminated
Jan 27
Waxing Gibbous
Feb 2
Full
Feb 10
Last Quarter
Feb 17
New
Feb 24
First Quarter

Hourly Weather History & Observations

Time (EST) Temp. Windchill Dew Point Humidity Pressure Visibility Wind Dir Wind Speed Gust Speed Precip Events Conditions
12:00 AM 23.0 °F - 21.2 °F 93% 30.07 in 10.0 mi Calm Calm - N/A   Clear
12:20 AM 23.0 °F - 21.2 °F 93% 30.07 in 10.0 mi Calm Calm - N/A   Clear
12:40 AM 21.2 °F - 19.4 °F 93% 30.07 in 10.0 mi Calm Calm - N/A   Clear
1:00 AM 21.2 °F - 19.4 °F 93% 30.07 in 10.0 mi Calm Calm - N/A   Clear
1:20 AM 23.0 °F - 19.4 °F 86% 30.07 in 10.0 mi Calm Calm - N/A   Clear
1:40 AM 21.2 °F - 19.4 °F 93% 30.08 in 10.0 mi Calm Calm - N/A   Clear
2:00 AM 23.0 °F - 19.4 °F 86% 30.08 in 10.0 mi Calm Calm - N/A   Clear
2:20 AM 21.2 °F - 19.4 °F 93% 30.08 in 10.0 mi Calm Calm - N/A   Clear
2:40 AM 21.2 °F - 19.4 °F 93% 30.08 in 10.0 mi Calm Calm - N/A   Clear
3:00 AM 21.2 °F - 19.4 °F 93% 30.07 in 10.0 mi Calm Calm - N/A   Clear
3:20 AM 21.2 °F - 19.4 °F 93% 30.07 in 10.0 mi Calm Calm - N/A   Clear
3:40 AM 21.2 °F - 19.4 °F 93% 30.07 in 10.0 mi Calm Calm - N/A   Clear
4:00 AM 21.2 °F - 19.4 °F 93% 30.08 in 10.0 mi Calm Calm - N/A   Clear
4:20 AM 21.2 °F - 19.4 °F 93% 30.08 in 10.0 mi Calm Calm - N/A   Clear
4:40 AM 21.2 °F - 19.4 °F 93% 30.07 in 10.0 mi Calm Calm - N/A   Clear
5:00 AM 21.2 °F - 19.4 °F 93% 30.06 in 10.0 mi Calm Calm - N/A   Clear
5:20 AM 21.2 °F - 19.4 °F 93% 30.06 in 10.0 mi Calm Calm - N/A   Clear
5:40 AM 19.4 °F - 19.4 °F 100% 30.05 in 10.0 mi Calm Calm - N/A   Clear
6:00 AM 19.4 °F - 17.6 °F 93% 30.06 in 10.0 mi Calm Calm - N/A   Clear
6:20 AM 19.4 °F - 17.6 °F 93% 30.05 in 10.0 mi Calm Calm - N/A   Clear
6:40 AM 19.4 °F - 17.6 °F 93% 30.06 in 10.0 mi Calm Calm - N/A   Clear
7:00 AM 19.4 °F - 17.6 °F 93% 30.06 in 10.0 mi Calm Calm - N/A   Clear
7:20 AM 17.6 °F - 17.6 °F 100% 30.06 in 10.0 mi Calm Calm - N/A   Clear
7:40 AM 19.4 °F - 17.6 °F 93% 30.07 in 10.0 mi Calm Calm - N/A   Clear
8:00 AM 19.4 °F - 17.6 °F 93% 30.06 in 10.0 mi Calm Calm - N/A   Clear
8:20 AM 19.4 °F - 17.6 °F 93% 30.07 in 10.0 mi Calm Calm - N/A   Clear
8:40 AM 21.2 °F - 19.4 °F 93% 30.06 in 10.0 mi Calm Calm - N/A   Clear
9:00 AM 23.0 °F - 21.2 °F 93% 30.06 in 10.0 mi Calm Calm - N/A   Clear
9:20 AM 26.6 °F - 23.0 °F 86% 30.05 in 10.0 mi Calm Calm - N/A   Clear
9:40 AM 28.4 °F - 23.0 °F 80% 30.05 in 10.0 mi Calm Calm - N/A   Clear
10:00 AM 32.0 °F - 23.0 °F 69% 30.04 in 10.0 mi Calm Calm - N/A   Clear
10:20 AM 33.8 °F - 24.8 °F 70% 30.03 in 10.0 mi Calm Calm - N/A   Clear
10:40 AM 37.4 °F - 24.8 °F 60% 30.03 in 10.0 mi Calm Calm - N/A   Clear
11:00 AM 41.0 °F - 23.0 °F 49% 30.01 in 10.0 mi Calm Calm - N/A   Clear
11:20 AM 44.6 °F - 21.2 °F 39% 30.01 in 10.0 mi Calm Calm - N/A   Clear
11:40 AM 46.4 °F - 19.4 °F 34% 30.00 in 10.0 mi Calm Calm - N/A   Clear
12:00 PM 50.0 °F - 19.4 °F 30% 29.98 in 10.0 mi Calm Calm - N/A   Clear
12:20 PM 50.0 °F - 19.4 °F 30% 29.96 in 10.0 mi Calm Calm - N/A   Clear
12:40 PM 51.8 °F - 19.4 °F 28% 29.93 in 10.0 mi ESE 3.5 mph - N/A   Clear
1:00 PM 51.8 °F - 17.6 °F 26% 29.91 in 10.0 mi Calm Calm - N/A   Clear
1:20 PM 51.8 °F - 15.8 °F 24% 29.90 in 10.0 mi Calm Calm - N/A   Clear
2:00 PM 53.6 °F - 17.6 °F 24% 29.87 in 10.0 mi NNE 4.6 mph - N/A   Clear
2:20 PM 55.4 °F - 19.4 °F 25% 29.86 in 10.0 mi SE 3.5 mph - N/A   Clear
2:40 PM 55.4 °F - 19.4 °F 25% 29.85 in 10.0 mi NE 4.6 mph - N/A   Clear
3:00 PM 55.4 °F - 19.4 °F 25% 29.85 in 10.0 mi West 4.6 mph - N/A   Clear
3:20 PM 55.4 °F - 14.0 °F 20% 29.86 in 10.0 mi SW 12.7 mph 17.3 mph N/A   Clear
3:40 PM 55.4 °F - 15.8 °F 21% 29.86 in 10.0 mi SW 13.8 mph 19.6 mph N/A   Clear
4:00 PM 53.6 °F - 17.6 °F 24% 29.89 in 10.0 mi SW 18.4 mph 23.0 mph N/A   Clear
4:20 PM 53.6 °F - 19.4 °F 26% 29.89 in 10.0 mi SW 9.2 mph 16.1 mph N/A   Clear
4:40 PM 53.6 °F - 19.4 °F 26% 29.87 in 10.0 mi SW 5.8 mph - N/A   Clear
5:00 PM 51.8 °F - 15.8 °F 24% 29.87 in 10.0 mi SSW 6.9 mph - N/A   Clear
5:20 PM 51.8 °F - 17.6 °F 26% 29.88 in 10.0 mi SW 4.6 mph - N/A   Clear
5:40 PM 51.8 °F - 15.8 °F 24% 29.87 in 10.0 mi SSW 4.6 mph - N/A   Clear
6:00 PM 50.0 °F - 17.6 °F 28% 29.87 in 10.0 mi Calm Calm - N/A   Clear
6:20 PM 50.0 °F - 17.6 °F 28% 29.89 in 10.0 mi Calm Calm - N/A   Clear
7:00 PM 50.0 °F - 17.6 °F 28% 29.90 in 10.0 mi SW 5.8 mph - N/A   Overcast
7:20 PM 50.0 °F - 15.8 °F 26% 29.89 in 10.0 mi SW 3.5 mph - N/A   Scattered Clouds
7:40 PM 44.6 °F - 21.2 °F 39% 29.90 in 10.0 mi Calm Calm - N/A   Mostly Cloudy
8:00 PM 42.8 °F - 23.0 °F 46% 29.91 in 10.0 mi Calm Calm - N/A   Overcast
8:20 PM 42.8 °F - 24.8 °F 49% 29.91 in 10.0 mi Calm Calm - N/A   Overcast
8:40 PM 42.8 °F - 23.0 °F 46% 29.91 in 10.0 mi Calm Calm - N/A   Mostly Cloudy
9:00 PM 41.0 °F - 28.4 °F 61% 29.90 in 10.0 mi Calm Calm - N/A   Overcast
9:20 PM 41.0 °F - 26.6 °F 57% 29.90 in 10.0 mi Calm Calm - N/A   Overcast
9:40 PM 41.0 °F - 26.6 °F 57% 29.90 in 10.0 mi Calm Calm - N/A   Overcast
10:00 PM 41.0 °F - 28.4 °F 61% 29.89 in 10.0 mi Calm Calm - N/A   Overcast
10:20 PM 41.0 °F - 30.2 °F 65% 29.88 in 10.0 mi Calm Calm - N/A   Overcast
10:40 PM 39.2 °F - 30.2 °F 70% 29.88 in 10.0 mi Calm Calm - N/A   Overcast
11:00 PM 41.0 °F 38.0 °F 30.2 °F 65% 29.88 in 10.0 mi WSW 4.6 mph - N/A   Overcast
11:20 PM 42.8 °F 38.6 °F 30.2 °F 61% 29.87 in 10.0 mi WSW 6.9 mph - N/A   Overcast
11:40 PM 42.8 °F 40.1 °F 32.0 °F 66% 29.87 in 10.0 mi West 4.6 mph - N/A   Overcast